Regional Weather Roundup
Issued by NWS

Home | Current Version | Previous Version | Text Only | Print | Product List | Glossary On
Versions: 1 2 3 4 5 6 7 8 9 10 11 12 13 14 15 16 17 18 19 20 21 22 23 24 25 26 27 28 29 30 31 32 33 34 35 36 37 38 39 40 41 42 43 44 45 46 47 48 49 50
000
ASUS45 KSLC 261910
RWRUT

UTAH REGIONAL WEATHER ROUNDUP
NATIONAL WEATHER SERVICE SALT LAKE CITY UT
100 PM MDT FRI AUG 26 2016

UTZ001>011-023>025-262000-

NORTHERN UTAH

CITY           SKY/WX    TMP DP  RH WIND       PRES   REMARKS
BRIGHAM CITY     N/A     78  34  20 SW8       30.03F
HILL AFB       MOSUNNY   78  38  23 W13       30.05F
LOGAN          MOSUNNY   76  36  23 CALM      30.04F
OGDEN          MOSUNNY   80  38  22 W14G20    30.03F
PROVO AIRPORT  MOSUNNY   81  41  24 VRB5      30.05F
SALT LAKE CITY PTSUNNY   83  39  21 S13       30.01F
VERNAL         SUNNY     71  42  35 S8G16     30.13F
WENDOVER       SUNNY     79  30  17 SE9       30.03F
HEBER CITY     MOSUNNY   75  39  27 SW22G29   30.08F
WEST JORDAN    MOSUNNY   80  41  24 SE16      30.04F

$$

UTZ012>022-026-027-262000-

SOUTHERN/CENTRAL UTAH

CITY           SKY/WX    TMP DP  RH WIND       PRES   REMARKS
BLANDING       MOSUNNY   68  48  48 SW6       30.31F
BRYCE CANYON   SUNNY     64  51  62 SE17      30.29F
CEDAR CITY     SUNNY     77  46  33 SW15G25   30.15F
MILFORD        SUNNY     80  45  28 S24G33    30.09F
MOAB/CYNLANDS  SUNNY     75  49  39 N3        30.12F
PRICE          MOSUNNY   67  43  41 S7        30.18F
ST GEORGE      PTCLDY    84  52  32 NE3       30.04F

$$

REGIONAL REPORTS     COLORADO/ARIZONA

CITY           SKY/WX    TMP DP  RH WIND       PRES   REMARKS
CRAIG, CO      PTSUNNY   75  35  23 VRB7      30.17F
GRAND JUNCTION SUNNY     72  46  39 VRB3      30.16F
RIFLE          SUNNY     70  46  42 W9        30.18F
MONTROSE       SUNNY     71  46  40 VRB3      30.21F
CORTEZ         MOSUNNY   69  50  50 W8        30.24F
PAGE, AZ       SUNNY     75  54  47 NE9       30.14F
GRAND CANYON   MOSUNNY   70  46  42 VRB3      30.28F
KINGMAN        MOSUNNY   86  48  26 VRB5      30.06F
FLAGSTAFF      MOSUNNY   68  48  48 VRB5      30.30F

$$

REGIONAL REPORTS    NEVADA/IDAHO/WYOMING

CITY           SKY/WX    TMP DP  RH WIND       PRES   REMARKS
LAS VEGAS, NV  MOSUNNY   93  42  17 N9        29.92F
ELY            SUNNY     75  30  19 W10G18    30.14F
ELKO           SUNNY     78  21  12 S12       30.08F
POCATELLO, ID  PTSUNNY   69  35  28 W8        30.06F
BURLEY         MOSUNNY   72  38  29 W7        30.03F
EVANSTON, WY   CLOUDY    74  33  22 SW15G30   30.16F
ROCK SPRINGS   SUNNY     70  30  22 VRB5      30.16F

$$



USA.gov is the U.S. government's official web portal to all federal, state and local government web resources and services.